EDT,Max TemperatureF,Mean TemperatureF,Min TemperatureF,Max Dew PointF,MeanDew PointF,Min DewpointF,Max Humidity, Mean Humidity, Min Humidity, Max Sea Level PressureIn, Mean Sea Level PressureIn, Min Sea Level PressureIn, Max VisibilityMiles, Mean VisibilityMiles, Min VisibilityMiles, Max Wind SpeedMPH, Mean Wind SpeedMPH, Max Gust SpeedMPH,PrecipitationIn, CloudCover, Events, WindDirDegrees
2012-10-1,72,60,47,57,49,42,93,64,35,29.99,29.94,29.88,10,9,5,13,5,16,T,2,,253
2012-10-2,73,68,62,72,66,57,100,87,73,30.00,29.97,29.92,10,6,0,14,6,18,0.43,8,Fog-Rain,149
2012-10-3,85,78,70,74,71,65,100,79,58,30.14,30.05,29.97,10,4,0,13,4,16,0.00,4,Fog,213
2012-10-4,77,71,64,69,67,62,93,84,74,30.16,30.11,30.06,10,8,3,12,3,12,T,3,Rain,185
2012-10-5,81,69,57,62,57,53,93,66,39,30.11,30.05,29.98,10,9,6,12,5,16,0.00,0,,279
2012-10-6,79,66,52,64,57,43,97,73,48,30.02,29.90,29.80,10,9,6,20,9,26,0.00,3,,236
2012-10-7,53,48,43,46,44,41,93,80,66,30.15,30.09,30.02,10,8,3,14,4,16,0.10,7,Rain,332
2012-10-8,54,47,39,46,43,38,100,82,64,30.29,30.22,30.15,10,7,1,12,6,14,T,4,,344
2012-10-9,61,56,50,59,54,45,97,89,80,30.17,30.11,30.04,10,4,2,14,8,18,0.68,8,Rain,11
2012-10-10,68,60,51,59,54,40,100,74,48,30.04,29.96,29.85,10,6,0,18,9,25,0.19,6,Fog-Rain,299
2012-10-11,61,52,43,40,36,30,83,58,32,30.25,30.18,30.05,10,10,10,21,7,25,0.00,0,,277
2012-10-12,65,52,38,45,38,27,86,63,40,30.43,30.21,30.12,10,10,9,23,9,28,0.00,1,,307
2012-10-13,57,44,31,43,32,26,85,63,41,30.52,30.45,30.33,10,10,10,14,5,17,0.00,0,,118
2012-10-14,72,58,43,59,50,40,86,64,41,30.33,30.18,29.99,10,10,10,21,10,28,0.00,0,,203
2012-10-15,75,67,58,61,58,55,87,70,53,29.97,29.78,29.69,10,9,2,20,9,29,0.33,5,Rain,225
2012-10-16,63,53,42,55,43,37,93,66,39,29.93,29.82,29.72,10,10,10,23,9,30,T,1,Rain,298
2012-10-17,63,50,37,45,39,34,89,66,42,30.04,29.99,29.92,10,10,10,8,2,20,0.00,0,,232
2012-10-18,67,53,39,63,50,36,92,74,56,30.04,29.98,29.89,10,10,10,18,7,31,0.00,4,,127
2012-10-19,71,67,63,65,63,60,100,90,79,29.90,29.77,29.68,10,8,2,20,11,26,0.35,7,Rain,163
2012-10-20,70,61,51,62,51,41,100,69,37,29.89,29.75,29.69,10,8,0,13,6,20,0.00,1,Fog,255
2012-10-21,66,56,45,43,41,39,76,58,40,30.09,30.01,29.91,10,10,10,16,8,22,0.00,0,,277
2012-10-22,68,56,44,43,41,39,83,59,35,30.16,30.11,30.07,10,10,10,18,8,23,0.00,0,,285
2012-10-23,76,61,46,57,49,43,86,64,41,30.15,30.10,30.07,10,10,9,12,3,23,0.01,1,,222
2012-10-24,71,63,54,60,55,51,90,77,63,30.18,30.12,30.08,10,10,6,13,5,16,0.00,6,,94
2012-10-25,64,62,60,58,57,55,90,84,78,30.25,30.23,30.19,10,10,8,12,5,21,0.00,8,,76
2012-10-26,72,63,54,59,55,53,100,82,63,30.22,30.16,30.10,10,7,1,13,4,21,0.00,2,,91
2012-10-27,65,59,52,53,51,50,96,78,60,30.08,29.96,29.86,10,10,10,18,10,24,0.00,0,,48
2012-10-28,59,57,54,54,52,50,93,83,72,29.84,29.69,29.53,10,6,1,28,19,39,0.77,7,Rain,33
2012-10-29,63,57,50,61,53,46,100,92,83,31.13,29.00,28.01,10,3,1,51,26,64,4.79,8,Rain,12
2012-10-30,50,46,42,45,42,38,93,82,71,29.51,29.27,28.88,10,9,5,36,11,46,0.44,8,Rain,190
2012-10-31,55,48,41,39,37,34,89,68,46,29.63,29.57,29.50,10,10,10,15,4,23,0.00,6,,236